Location: Maynard F. Jordan Observatory
(44.9000°N, 68.6700°W)
Time: 07:33:19
(UTC-04:00)

Cosmos 2297 Rocket - Visible Passes

Search period start: 17 September 2014 00:00
Search period end: 27 September 2014 00:00
Orbit: 840 x 843 km, 71.0° (Epoch: 15 September)

Date Brightness Start Highest point End Pass type
(mag) Time Alt. Az. Time Alt. Az. Time Alt. Az.
17 Sep 4.1 20:14:13 10° N 20:16:56 13° NE 20:18:38 12° ENE visible
17 Sep 3.1 21:56:34 10° NNW 22:00:27 42° N 22:00:27 42° N visible
17 Sep 4.8 23:41:39 10° NW 23:42:15 12° WNW 23:42:15 12° WNW visible
18 Sep 4.2 19:59:20 10° NNE 20:01:52 13° NE 20:03:58 11° ENE visible
18 Sep 2.9 21:41:34 10° NNW 21:45:46 46° N 21:45:46 46° N visible
18 Sep 4.7 23:26:33 10° NW 23:27:35 14° WNW 23:27:35 14° WNW visible
19 Sep 4.2 19:44:28 10° NNE 19:46:48 12° NE 19:49:07 10° ENE visible
19 Sep 2.7 21:26:35 10° NNW 21:31:08 49° NNE 21:31:08 49° NNE visible
19 Sep 4.6 23:11:27 10° NW 23:12:56 16° WNW 23:12:56 16° WNW visible
20 Sep 4.2 19:29:37 10° NNE 19:31:43 12° NE 19:33:50 10° ENE visible
20 Sep 2.6 21:11:35 10° NNW 21:16:31 52° NE 21:16:31 52° NE visible
20 Sep 4.5 22:56:22 10° NW 22:58:20 18° WNW 22:58:20 18° WNW visible
21 Sep 4.2 19:14:47 10° NNE 19:16:39 12° NE 19:18:30 10° NE visible
21 Sep 2.5 20:56:35 10° NNW 21:01:57 52° NE 21:01:57 52° NE visible
21 Sep 4.3 22:41:17 10° NW 22:43:46 21° WNW 22:43:46 21° WNW visible
22 Sep 4.2 18:59:59 10° NNE 19:01:34 11° NE 19:03:09 10° NE visible
22 Sep 2.4 20:41:35 10° NNW 20:47:05 49° ENE 20:47:25 49° ENE visible
22 Sep 4.1 22:26:12 10° NW 22:29:14 23° WNW 22:29:14 23° WNW visible
23 Sep 2.5 20:26:36 10° NNW 20:32:04 47° ENE 20:32:56 44° E visible
23 Sep 3.9 22:11:07 10° NW 22:14:45 26° W 22:14:45 26° W visible
24 Sep 2.6 20:11:36 10° NNW 20:17:02 45° ENE 20:18:30 37° E visible
24 Sep 3.7 21:56:03 10° NW 22:00:20 29° W 22:00:20 29° W visible
25 Sep 2.6 19:56:36 10° NNW 20:02:00 43° ENE 20:04:08 31° ESE visible
25 Sep 3.6 21:40:59 10° NW 21:45:52 31° WSW 21:45:58 31° WSW visible
26 Sep 2.7 19:41:37 10° NNW 19:46:58 41° ENE 19:49:50 24° ESE visible
26 Sep 3.5 21:25:55 10° NW 21:30:53 33° WSW 21:31:40 31° WSW visible
